Regional Weather Roundup
Issued by NWS Little Rock, AR

Home | Current Version | Previous Version | Text Only | Print | Product List | Glossary On
Versions: 1 2 3 4 5 6 7 8 9 10 11 12 13 14 15 16 17 18 19 20 21 22 23 24 25 26 27 28 29 30 31 32 33 34 35 36 37 38 39 40 41 42 43 44 45 46 47 48 49 50
000
ASUS44 KLZK 201205
RWRLZK

WEATHER ROUNDUP FOR ARKANSAS
NATIONAL WEATHER SERVICE LITTLE ROCK AR
700 AM CDT SAT SEP 20 2014

NOTE: "FAIR" INDICATES FEW OR NO CLOUDS BELOW 12,000 FEET WITH NO
SIGNIFICANT WEATHER AND/OR OBSTRUCTIONS TO VISIBILITY.

ARZ001-003-010-029-201300-
NORTHWEST ARKANSAS

CITY           SKY/WX    TMP DP  RH WIND       PRES   REMARKS
FAYETTEVILLE   MOCLDY    67  66  97 S5        30.06R
6HR MIN TEMP:  60; 6HR MAX TEMP:  67;

FORT SMITH     PTCLDY    68  66  93 NE5       30.02R FOG
6HR MIN TEMP:  68; 6HR MAX TEMP:  71;

HARRISON       CLEAR     62  62 100 S5        30.06R FOG
6HR MIN TEMP:  62; 6HR MAX TEMP:  66;

BENTONVILLE    MOCLDY    64  63  94 CALM      30.06R VSB 1
6HR MIN TEMP:  63; 6HR MAX TEMP:  66;

ROGERS         CLEAR     64  63  96 SE3       30.07R
6HR MIN TEMP:  64; 6HR MAX TEMP:  68;

SILOAM SPGS    MOCLDY    64  61  88 CALM      30.06R
6HR MIN TEMP:  64; 6HR MAX TEMP:  66;

HIGHFILL       MOCLDY    61  61 100 CALM      30.05R FOG
6HR MIN TEMP:  60; 6HR MAX TEMP:  67;

SPRINGDALE     CLEAR     66  64  94 CALM      30.07R FOG
$$

ARZ004-005-016-201300-
NORTH CENTRAL ARKANSAS

CITY           SKY/WX    TMP DP  RH WIND       PRES   REMARKS
BATESVILLE     CLEAR     61  61 100 CALM      30.05R
6HR MIN TEMP:  61; 6HR MAX TEMP:  66;

FLIPPIN        CLOUDY    61  55  82 CALM      30.06R VSB<1/4
6HR MIN TEMP:  61; 6HR MAX TEMP:  64;

MTN HOME       CLEAR     61  61 100 CALM      30.05R FOG
6HR MIN TEMP:  61; 6HR MAX TEMP:  66;

$$

ARZ040-041-201300-
WEST CENTRAL ARKANSAS

CITY           SKY/WX    TMP DP  RH WIND       PRES   REMARKS
MENA           CLOUDY    68  66  94 CALM      30.05R
MOUNT IDA      FOG       66  65  96 CALM      30.02S VSB 1/4
6HR MIN TEMP:  65; 6HR MAX TEMP:  67;

$$

ARZ009-017-025-026-028-201300-
NORTHEAST ARKANSAS

CITY           SKY/WX    TMP DP  RH WIND       PRES   REMARKS
CORNING          N/A     61  61 100 CALM      30.06R FOG
JONESBORO      PTCLDY    63  63 100 CALM      30.05R
6HR MIN TEMP:  62; 6HR MAX TEMP:  66;

NEWPORT        FOG       62  62 100 CALM      30.06R VSB<1/4
6HR MIN TEMP:  62; 6HR MAX TEMP:  67;

WALNUT RIDGE   CLEAR     63  59  88 N3        30.05R
6HR MIN TEMP:  61; 6HR MAX TEMP:  66;

BLYTHEVILLE    FOG       66  65  96 CALM      30.06R VSB 1
6HR MIN TEMP:  64; 6HR MAX TEMP:  68;

$$

ARZ022-023-033-042-044-201300-
CENTRAL ARKANSAS

CITY           SKY/WX    TMP DP  RH WIND       PRES   REMARKS
LITTLE ROCK    CLEAR     68  65  90 CALM      30.04R
6HR MIN TEMP:  67; 6HR MAX TEMP:  71;

N LITTLE ROCK    N/A     69  68  94 S3        30.04R
6HR MIN TEMP:  68; 6HR MAX TEMP:  72;

JACKSONVILLE   CLEAR     63  62  96 CALM      30.04R
6HR MIN TEMP:  63; 6HR MAX TEMP:  67;

SEARCY         FOG       64  64 100 CALM      30.05R VSB 1
6HR MIN TEMP:  63; 6HR MAX TEMP:  67;

HOT SPRINGS    FOG       67  66  97 CALM      30.04R VSB 1/4
6HR MIN TEMP:  67; 6HR MAX TEMP:  70; 6HR PCP: TRACE;

RUSSELLVILLE   PTCLDY    65  63  93 CALM      30.04R FOG
6HR MIN TEMP:  65; 6HR MAX TEMP:  68;

CLINTON        FOG       63  63 100 CALM      30.06R VSB 1/2
$$

ARZ036-201300-
EAST ARKANSAS

CITY           SKY/WX    TMP DP  RH WIND       PRES   REMARKS
WEST MEMPHIS   CLEAR     65  65 100 CALM      30.03R FOG
6HR MIN TEMP:  64; 6HR MAX TEMP:  70;

$$

ARZ050-053-066-070-073-201300-
SOUTHWEST ARKANSAS

CITY           SKY/WX    TMP DP  RH WIND       PRES   REMARKS
ARKADELPHIA    FAIR      67  67 100 CALM      30.03R FOG
6HR MIN TEMP:  66; 6HR MAX TEMP:  69;

CAMDEN         CLEAR     64  63  94 CALM      30.02R FOG
TEXARKANA      FOG       68  68 100 CALM      30.01S VSB 1/4
6HR MIN TEMP:  67; 6HR MAX TEMP:  70;

EL DORADO      CLEAR     66  66 100 NE3       30.02R FOG
6HR MIN TEMP:  65; 6HR MAX TEMP:  71;

DE QUEEN       FOG       65  65 100 CALM      30.00S VSB 3/4
6HR MIN TEMP:  65; 6HR MAX TEMP:  70;

$$

ARZ056-057-069-201300-
SOUTHEAST ARKANSAS

CITY           SKY/WX    TMP DP  RH WIND       PRES   REMARKS
PINE BLUFF     CLEAR     66  64  93 CALM      30.03R
6HR MIN TEMP:  64; 6HR MAX TEMP:  70;

STUTTGART      CLEAR     70  64  83 SE3       30.04R
6HR MIN TEMP:  66; 6HR MAX TEMP:  70;

MONTICELLO     CLEAR     68  65  90 CALM      30.02R
6HR MIN TEMP:  66; 6HR MAX TEMP:  70;


$$




USA.gov is the U.S. government's official web portal to all federal, state and local government web resources and services.